| time (UTC) | temp F | wind direction | speed knots | gust knots | rain 1hr in | rain 24hr in | rain mn in | humidity % | barometer mb |
| 20260506203210 | 51 | 277 | 3.5 | 0.0 | 0.00 | 0.00 | 0.35 | 75 | 1011.0 |
| 20260506200210 | 51 | 294 | 5.2 | 0.0 | 0.00 | 0.00 | 0.35 | 75 | 1010.7 |
| 20260506193215 | 51 | 317 | 2.6 | 0.0 | 0.00 | 0.00 | 0.35 | 75 | 1010.5 |
| 20260506190211 | 51 | 350 | 4.3 | 0.0 | 0.00 | 0.00 | 0.35 | 75 | 1009.9 |
| 20260506183209 | 51 | 274 | 4.3 | 0.0 | 0.00 | 0.00 | 0.34 | 75 | 1009.6 |
| 20260506180216 | 52 | 250 | 4.3 | 0.0 | 0.00 | 0.00 | 0.32 | 75 | 1009.2 |
| 20260506173210 | 54 | 261 | 3.5 | 0.0 | 0.00 | 0.00 | 0.31 | 75 | 1008.9 |
| 20260506170215 | 54 | 270 | 0.0 | 0.0 | 0.00 | 0.00 | 0.29 | 75 | 1008.7 |
| 20260506163210 | 54 | 288 | 0.9 | 0.0 | 0.00 | 0.00 | 0.26 | 76 | 1008.6 |
| 20260506160210 | 54 | 328 | 1.7 | 0.0 | 0.00 | 0.00 | 0.22 | 77 | 1008.5 |
| 20260506153210 | 55 | 229 | 3.5 | 0.0 | 0.00 | 0.00 | 0.19 | 79 | 1008.3 |
| 20260506150210 | 54 | 315 | 1.7 | 0.0 | 0.00 | 0.00 | 0.09 | 81 | 1008.3 |
| 20260506143210 | 56 | 250 | 2.6 | 0.0 | 0.00 | 0.00 | 0.06 | 82 | 1007.9 |
| 20260506140210 | 58 | 183 | 1.7 | 0.0 | 0.00 | 0.00 | 0.03 | 84 | 1007.6 |
| 20260506133211 | 59 | 190 | 0.0 | 0.0 | 0.00 | 0.00 | 0.03 | 82 | 1007.0 |
| 20260506130211 | 62 | 160 | 0.0 | 0.0 | 0.00 | 0.00 | 0.01 | 75 | 1006.6 |
| 20260506123210 | 64 | 189 | 3.5 | 0.0 | 0.00 | 0.00 | 0.01 | 74 | 1006.6 |
| 20260506120210 | 64 | 257 | 1.7 | 0.0 | 0.00 | 0.00 | 0.01 | 72 | 1006.6 |
| 20260506113217 | 63 | 154 | 1.7 | 0.0 | 0.00 | 0.00 | 0.01 | 66 | 1007.0 |
| 20260506110210 | 62 | 156 | 5.2 | 0.0 | 0.00 | 0.00 | 0.01 | 71 | 1007.2 |
| 20260506100213 | 60 | 0 | 0.9 | 0.0 | 0.00 | 0.00 | 0.01 | 83 | 1007.7 |
| 20260506093211 | 58 | 0 | 0.9 | 0.0 | 0.00 | 0.00 | 0.01 | 82 | 1007.7 |
| 20260506090211 | 56 | 0 | 0.9 | 0.0 | 0.00 | 0.00 | 0.01 | 75 | 1007.8 |
| 20260506083211 | 53 | 26 | 1.7 | 0.0 | 0.00 | 0.00 | 0.01 | 74 | 1007.9 |
| 20260506080212 | 53 | 96 | 0.0 | 0.0 | 0.00 | 0.00 | 0.01 | 74 | 1008.0 |
| 20260506073211 | 52 | 96 | 0.0 | 0.0 | 0.00 | 0.00 | 0.01 | 74 | 1008.2 |
| 20260506070212 | 50 | 96 | 0.0 | 0.0 | 0.00 | 0.00 | 0.01 | 74 | 1007.9 |
| 20260506060210 | 48 | 24 | 0.0 | 0.0 | 0.00 | 0.00 | 0.01 | 75 | 1007.9 |
| 20260506050211 | 47 | 24 | 0.0 | 0.0 | 0.00 | 0.00 | 0.01 | 75 | 1008.2 |
| 20260506043211 | 47 | 24 | 0.0 | 0.0 | 0.00 | 0.00 | 0.01 | 75 | 1008.1 |
| 20260506040211 | 46 | 22 | 0.0 | 0.0 | 0.00 | 0.00 | 0.01 | 75 | 1008.3 |
| 20260506033211 | 46 | 58 | 0.0 | 0.0 | 0.00 | 0.00 | 0.01 | 76 | 1008.8 |
| 20260506030212 | 46 | 63 | 0.0 | 0.0 | 0.00 | 0.00 | 0.01 | 76 | 1008.5 |
| 20260506023211 | 47 | 41 | 0.0 | 0.0 | 0.00 | 0.00 | 0.01 | 76 | 1008.6 |
| 20260506020212 | 48 | 40 | 0.0 | 0.0 | 0.00 | 0.00 | 0.01 | 76 | 1008.9 |
| 20260506013211 | 48 | 15 | 1.7 | 0.0 | 0.00 | 0.00 | 0.01 | 76 | 1009.0 |
| 20260506010213 | 48 | 75 | 0.0 | 0.0 | 0.00 | 0.00 | 0.00 | 76 | 1009.0 |
| 20260506003209 | 49 | 118 | 1.7 | 0.0 | 0.00 | 0.00 | 0.00 | 76 | 1009.0 |
| 20260506000211 | 49 | 42 | 0.0 | 0.0 | 0.00 | 0.00 | 0.00 | 76 | 1009.5 |
| 20260505233209 | 51 | 42 | 0.0 | 0.0 | 0.00 | 0.00 | 0.00 | 76 | 1009.7 |
| 20260505230209 | 52 | 283 | 4.3 | 0.0 | 0.00 | 0.00 | 0.00 | 75 | 1009.6 |
| 20260505223210 | 52 | 336 | 1.7 | 0.0 | 0.00 | 0.00 | 0.00 | 76 | 1009.6 |
| 20260505220209 | 53 | 337 | 3.5 | 0.0 | 0.00 | 0.00 | 0.00 | 76 | 1009.5 |
| 20260505213211 | 53 | 15 | 1.7 | 0.0 | 0.00 | 0.00 | 0.18 | 76 | 1009.6 |
| 20260505210215 | 54 | 332 | 2.6 | 0.0 | 0.00 | 0.00 | 0.18 | 76 | 1009.7 |